Location: Dilsberg
(49.3983°N, 8.8354°E)
Time: 06:07:27
(UTC+00:00)

Nadezhda 3 Rocket - Pass Details

Date: 19 May 2025
Orbit: 957 x 997 km, 82.9° (Epoch: 14 June)

Event Time Altitude Azimuth Distance (km) Brightness Sun altitude
Exits shadow 21:21:59 23° 152° (SSE) 1,904 4.9 -15.8°
Maximum altitude 21:25:31 48° 91° (E) 1,245 4.4 -16.0°
Drops below altitude 10° 21:31:28 10° 19° (NNE) 2,734 7.0 -16.5°
Sets 21:34:05 0° 14° (NNE) 3,692 7.8 -16.7°
